EDT,Max TemperatureF,Mean TemperatureF,Min TemperatureF,Max Dew PointF,MeanDew PointF,Min DewpointF,Max Humidity, Mean Humidity, Min Humidity, Max Sea Level PressureIn, Mean Sea Level PressureIn, Min Sea Level PressureIn, Max VisibilityMiles, Mean VisibilityMiles, Min VisibilityMiles, Max Wind SpeedMPH, Mean Wind SpeedMPH, Max Gust SpeedMPH,PrecipitationIn, CloudCover, Events, WindDirDegrees
2013-7-1,78,71,64,68,65,63,100,86,65,30.00,29.91,29.85,10,8,2,9,3,,0.00,6,,347
2013-7-2,80,73,66,72,67,64,100,85,61,30.10,30.04,29.97,10,9,2,7,2,,0.00,4,,135
2013-7-3,84,75,66,70,67,64,100,79,55,30.21,30.17,30.10,10,10,7,9,2,,0.00,2,,108
2013-7-4,84,75,66,73,68,66,100,82,55,30.27,30.21,30.17,10,10,1,7,2,,0.00,4,Thunderstorm,105
2013-7-5,80,72,64,72,68,63,100,85,65,30.22,30.19,30.14,10,9,0,10,3,17,0.00,3,,141
2013-7-6,86,76,66,73,69,64,100,82,58,30.23,30.17,30.08,10,8,0,9,2,,0.00,3,,128
2013-7-7,75,70,66,70,67,64,100,89,73,30.16,30.13,30.07,10,10,5,9,3,,0.00,4,,148
2013-7-8,82,72,62,70,66,61,100,82,62,30.18,30.14,30.10,10,10,7,10,4,16,0.00,3,Thunderstorm,162
2013-7-9,82,75,68,73,69,66,100,87,74,30.16,30.09,30.02,10,9,2,15,6,21,0.00,7,Thunderstorm,141
2013-7-10,84,74,64,77,69,63,100,91,70,30.07,29.98,29.88,10,9,3,29,5,45,0.00,5,Thunderstorm,136
2013-7-11,75,68,60,64,61,55,100,81,57,30.03,30.00,29.94,10,10,4,9,4,,0.00,6,,269
2013-7-12,73,64,55,64,60,54,100,87,69,30.15,30.09,30.03,10,9,4,10,3,,0.05,4,,312
2013-7-13,80,68,57,66,64,57,100,80,58,30.26,30.19,30.13,10,9,0,9,3,,0.01,4,,2
2013-7-14,87,76,66,73,67,64,100,73,51,30.33,30.30,30.26,10,10,4,14,6,17,0.00,2,,76
2013-7-15,87,74,62,73,68,63,100,79,49,30.39,30.34,30.30,10,8,1,7,1,,0.00,1,,173
2013-7-16,87,76,64,75,71,63,100,87,62,30.37,30.33,30.30,10,8,0,10,1,18,0.00,2,Thunderstorm,223
2013-7-17,89,78,66,75,72,64,100,87,62,30.35,30.29,30.21,10,7,0,9,1,,0.00,3,Thunderstorm,212
2013-7-18,89,78,66,75,72,64,100,81,55,30.23,30.17,30.09,10,7,0,8,1,,0.00,1,,155
2013-7-19,87,78,69,75,71,66,100,87,62,30.10,30.03,29.92,10,7,1,12,3,24,0.88,1,Thunderstorm,149
2013-7-20,75,72,69,72,69,66,100,90,78,29.97,29.94,29.90,10,8,3,10,4,18,0.16,4,Thunderstorm,152
2013-7-21,80,72,64,73,68,63,100,88,70,30.02,29.98,29.95,10,7,2,6,1,,0.32,4,,102
2013-7-22,78,70,62,72,68,61,100,92,74,29.99,29.90,29.82,10,6,0,10,1,,0.20,4,,138
2013-7-23,80,72,62,68,65,63,100,84,61,29.84,29.80,29.75,10,9,3,14,4,20,1.26,5,Thunderstorm,180
2013-7-24,71,64,55,64,56,52,100,75,53,30.02,29.93,29.79,10,10,8,15,5,22,0.18,5,,275
2013-7-25,75,62,48,57,52,46,100,74,41,30.13,30.07,30.02,10,10,0,9,3,,0.00,1,,289
2013-7-26,78,63,48,63,54,46,100,75,44,30.14,30.09,30.04,10,8,1,8,1,,0.00,0,,103
2013-7-27,73,64,55,68,62,55,100,91,78,30.04,29.96,29.89,10,8,0,9,1,,0.52,5,Thunderstorm,102
2013-7-28,73,63,53,63,58,52,100,79,50,30.08,29.97,29.89,10,9,3,14,4,20,0.10,5,,166
2013-7-29,71,60,50,55,53,48,100,77,53,30.24,30.14,30.08,10,10,9,13,3,17,0.00,2,,185
2013-7-30,75,63,51,63,56,50,100,78,50,30.27,30.23,30.19,10,9,1,8,1,,0.00,3,,221
2013-7-31,73,64,55,64,60,54,100,87,69,30.19,30.15,30.06,10,7,0,8,1,,0.01,5,,119